User: anonymous   Login
Location: Poughquag
(41.6090°N, 73.6820°W)
Time: 11:31:06
(UTC-04:00)
Language:

STARLINK-1320 - Orbit

View from above orbital plane
View from above orbital plane
View from above satellite
View from above satellite

Ground track
Ground track

The orbit data is extracted from the following two-line orbital elements,

1 45572C 20025AT  20221.43622545 -.01137968  00000-0 -35806-1 0  2218
2 45572  53.0012 232.7136 0001441  60.3633  44.9489 15.33535262    15
Epoch (UTC): 08 August 2020 10:28:09
Eccentricity: 0.0001441
inclination: 53.0012°
perigee height: 464 km
apogee height: 466 km
right ascension of ascending node: 232.7136°
argument of perigee: 60.3633°
revolutions per day: 15.33535262
mean anomaly at epoch: 44.9489°
orbit number at epoch: 1

The dashed part of the orbit path shows where the satellite is in the earth's shadow,  

DLR